| time (UTC) | temp C | wind direction | speed KPH | gust KPH | rain 1hr cm | rain 24hr cm | rain mn cm | humidity % | barometer mb |
| 20260904023521 | 17 | 161 | 9.7 | 14.5 | 0.00 | 0.00 | 0.00 | 36 | 1024.7 |
| 20260904022522 | 17 | 155 | 9.7 | 12.9 | 0.00 | 0.00 | 0.00 | 38 | 1024.6 |
| 20260904021522 | 17 | 152 | 9.7 | 14.5 | 0.00 | 0.00 | 0.00 | 36 | 1024.4 |
| 20260904020516 | 18 | 167 | 9.7 | 12.9 | 0.00 | 0.00 | 0.00 | 34 | 1024.3 |
| 20260904015517 | 19 | 220 | 9.7 | 12.9 | 0.00 | 0.00 | 0.00 | 31 | 1024.2 |
| 20260904014517 | 20 | 211 | 9.7 | 16.1 | 0.00 | 0.00 | 0.00 | 31 | 1024.1 |
| 20260904013523 | 20 | 221 | 8.0 | 12.9 | 0.00 | 0.00 | 0.00 | 29 | 1024.1 |
| 20260904012517 | 21 | 219 | 9.7 | 16.1 | 0.00 | 0.00 | 0.00 | 28 | 1024.0 |
| 20260904011518 | 22 | 216 | 9.7 | 12.9 | 0.00 | 0.00 | 0.00 | 28 | 1024.0 |
| 20260904010518 | 23 | 222 | 9.7 | 14.5 | 0.00 | 0.00 | 0.00 | 26 | 1024.0 |
| 20260904005517 | 23 | 229 | 12.9 | 32.2 | 0.00 | 0.00 | 0.00 | 25 | 1023.9 |
| 20260904004518 | 23 | 238 | 11.3 | 17.7 | 0.00 | 0.00 | 0.00 | 24 | 1023.9 |
| 20260904003518 | 24 | 248 | 12.9 | 20.9 | 0.00 | 0.00 | 0.00 | 23 | 1023.9 |
| 20260904002518 | 24 | 243 | 12.9 | 20.9 | 0.00 | 0.00 | 0.00 | 23 | 1023.9 |
| 20260904001539 | 24 | 232 | 11.3 | 17.7 | 0.00 | 0.00 | 0.00 | 24 | 1023.9 |
| 20260904000519 | 23 | 221 | 9.7 | 17.7 | 0.00 | 0.00 | 0.00 | 25 | 1023.9 |
| 20260903235536 | 25 | 242 | 11.3 | 16.1 | 0.00 | 0.00 | 0.00 | 24 | 1023.9 |
| 20260903234539 | 25 | 259 | 16.1 | 24.1 | 0.00 | 0.00 | 0.00 | 23 | 1023.9 |
| 20260903233539 | 25 | 249 | 16.1 | 29.0 | 0.00 | 0.00 | 0.00 | 23 | 1023.8 |
| 20260903232536 | 25 | 237 | 11.3 | 22.5 | 0.00 | 0.00 | 0.00 | 22 | 1023.8 |
| 20260903231516 | 25 | 247 | 12.9 | 22.5 | 0.00 | 0.00 | 0.00 | 22 | 1023.9 |
| 20260903230517 | 25 | 260 | 12.9 | 30.6 | 0.00 | 0.00 | 0.00 | 22 | 1023.9 |
| 20260903225520 | 25 | 308 | 12.9 | 19.3 | 0.00 | 0.00 | 0.00 | 22 | 1024.0 |
| 20260903224518 | 25 | 272 | 9.7 | 24.1 | 0.00 | 0.00 | 0.00 | 22 | 1024.0 |
| 20260903223558 | 25 | 264 | 12.9 | 25.7 | 0.00 | 0.00 | 0.00 | 22 | 1024.1 |
| 20260903222518 | 25 | 279 | 11.3 | 19.3 | 0.00 | 0.00 | 0.00 | 22 | 1024.1 |
| 20260903221520 | 25 | 260 | 4.8 | 12.9 | 0.00 | 0.00 | 0.00 | 22 | 1024.3 |
| 20260903220539 | 25 | 222 | 16.1 | 29.0 | 0.00 | 0.00 | 0.00 | 22 | 1024.4 |
| 20260903215518 | 25 | 229 | 17.7 | 29.0 | 0.00 | 0.00 | 0.00 | 22 | 1024.4 |
| 20260903214521 | 25 | 251 | 6.4 | 11.3 | 0.00 | 0.00 | 0.00 | 23 | 1024.5 |
| 20260903213519 | 25 | 255 | 12.9 | 25.7 | 0.00 | 0.00 | 0.00 | 22 | 1024.5 |
| 20260903212522 | 25 | 351 | 6.4 | 14.5 | 0.00 | 0.00 | 0.00 | 20 | 1024.7 |
| 20260903211539 | 25 | 291 | 9.7 | 14.5 | 0.00 | 0.00 | 0.00 | 20 | 1024.8 |
| 20260903210516 | 25 | 289 | 12.9 | 27.4 | 0.00 | 0.00 | 0.00 | 20 | 1024.8 |
| 20260903205519 | 24 | 260 | 8.0 | 25.7 | 0.00 | 0.00 | 0.00 | 22 | 1025.0 |
| 20260903204519 | 24 | 276 | 12.9 | 24.1 | 0.00 | 0.00 | 0.00 | 22 | 1025.1 |
| 20260903203516 | 24 | 321 | 9.7 | 16.1 | 0.00 | 0.00 | 0.00 | 22 | 1025.2 |
| 20260903202517 | 24 | 283 | 8.0 | 17.7 | 0.00 | 0.00 | 0.00 | 21 | 1025.2 |
| 20260903201537 | 24 | 224 | 12.9 | 25.7 | 0.00 | 0.00 | 0.00 | 23 | 1025.3 |
| 20260903200517 | 24 | 289 | 9.7 | 19.3 | 0.00 | 0.00 | 0.00 | 21 | 1025.3 |
| 20260903195517 | 24 | 267 | 6.4 | 12.9 | 0.00 | 0.00 | 0.00 | 20 | 1025.5 |
| 20260903194517 | 23 | 271 | 8.0 | 19.3 | 0.00 | 0.00 | 0.00 | 21 | 1025.5 |
| 20260903193518 | 23 | 275 | 11.3 | 19.3 | 0.00 | 0.00 | 0.00 | 22 | 1025.6 |
| 20260903192518 | 24 | 284 | 17.7 | 25.7 | 0.00 | 0.00 | 0.00 | 21 | 1025.6 |
| 20260903191539 | 24 | 264 | 20.9 | 32.2 | 0.00 | 0.00 | 0.00 | 20 | 1025.6 |
| 20260903190518 | 23 | 236 | 9.7 | 20.9 | 0.00 | 0.00 | 0.00 | 21 | 1025.7 |
| 20260903185518 | 23 | 272 | 14.5 | 30.6 | 0.00 | 0.00 | 0.00 | 22 | 1025.7 |
| 20260903184519 | 23 | 241 | 11.3 | 20.9 | 0.00 | 0.00 | 0.00 | 24 | 1025.8 |
| 20260903183516 | 23 | 314 | 8.0 | 16.1 | 0.00 | 0.00 | 0.00 | 23 | 1025.8 |
| 20260903182519 | 23 | 255 | 12.9 | 25.7 | 0.00 | 0.00 | 0.00 | 22 | 1025.9 |
| 20260903181519 | 23 | 162 | 6.4 | 14.5 | 0.00 | 0.00 | 0.00 | 26 | 1026.0 |
| 20260903180520 | 23 | 236 | 9.7 | 19.3 | 0.00 | 0.00 | 0.00 | 26 | 1026.0 |
| 20260903175516 | 22 | 257 | 9.7 | 17.7 | 0.00 | 0.00 | 0.00 | 26 | 1026.2 |
| 20260903174520 | 22 | 249 | 6.4 | 16.1 | 0.00 | 0.00 | 0.00 | 25 | 1026.2 |
| 20260903173520 | 22 | 235 | 8.0 | 19.3 | 0.00 | 0.00 | 0.00 | 27 | 1026.2 |
| 20260903172520 | 22 | 254 | 9.7 | 14.5 | 0.00 | 0.00 | 0.00 | 28 | 1026.3 |
| 20260903171520 | 22 | 223 | 8.0 | 14.5 | 0.00 | 0.00 | 0.00 | 27 | 1026.3 |
| 20260903170521 | 21 | 202 | 8.0 | 14.5 | 0.00 | 0.00 | 0.00 | 27 | 1026.3 |
| 20260903165517 | 21 | 203 | 8.0 | 14.5 | 0.00 | 0.00 | 0.00 | 27 | 1026.3 |
| 20260903164521 | 21 | 223 | 8.0 | 14.5 | 0.00 | 0.00 | 0.00 | 29 | 1026.3 |
| 20260903163521 | 21 | 255 | 8.0 | 12.9 | 0.00 | 0.00 | 0.00 | 29 | 1026.3 |
| 20260903162521 | 21 | 315 | 8.0 | 12.9 | 0.00 | 0.00 | 0.00 | 32 | 1026.1 |
| 20260903161518 | 21 | 320 | 9.7 | 17.7 | 0.00 | 0.00 | 0.00 | 33 | 1026.0 |
| 20260903160518 | 20 | 286 | 9.7 | 17.7 | 0.00 | 0.00 | 0.00 | 34 | 1026.2 |
| 20260903155518 | 20 | 288 | 11.3 | 20.9 | 0.00 | 0.00 | 0.00 | 35 | 1026.3 |
| 20260903154519 | 20 | 272 | 11.3 | 17.7 | 0.00 | 0.00 | 0.00 | 35 | 1026.5 |
| 20260903153516 | 20 | 282 | 14.5 | 22.5 | 0.00 | 0.00 | 0.00 | 35 | 1026.5 |
| 20260903152519 | 20 | 287 | 9.7 | 17.7 | 0.00 | 0.00 | 0.00 | 35 | 1026.5 |
| 20260903151522 | 20 | 279 | 8.0 | 16.1 | 0.00 | 0.00 | 0.00 | 36 | 1026.6 |
| 20260903150543 | 20 | 227 | 6.4 | 11.3 | 0.00 | 0.00 | 0.00 | 35 | 1026.7 |
| 20260903145517 | 19 | 231 | 9.7 | 16.1 | 0.00 | 0.00 | 0.00 | 37 | 1026.8 |
| 20260903144517 | 18 | 209 | 12.9 | 17.7 | 0.00 | 0.00 | 0.00 | 41 | 1026.8 |
| 20260903143517 | 18 | 186 | 16.1 | 20.9 | 0.00 | 0.00 | 0.00 | 41 | 1026.8 |
| 20260903142517 | 18 | 193 | 16.1 | 24.1 | 0.00 | 0.00 | 0.00 | 43 | 1026.7 |
| 20260903141517 | 17 | 188 | 17.7 | 25.7 | 0.00 | 0.00 | 0.00 | 45 | 1026.8 |
| 20260903132519 | 15 | 190 | 12.9 | 17.7 | 0.00 | 0.00 | 0.00 | 51 | 1026.3 |
| 20260903131518 | 14 | 187 | 11.3 | 16.1 | 0.00 | 0.00 | 0.00 | 54 | 1026.1 |
| 20260903130519 | 13 | 204 | 9.7 | 14.5 | 0.00 | 0.00 | 0.00 | 54 | 1026.0 |
| 20260903125519 | 13 | 185 | 8.0 | 12.9 | 0.00 | 0.00 | 0.00 | 54 | 1026.1 |
| 20260903124519 | 13 | 185 | 9.7 | 12.9 | 0.00 | 0.00 | 0.00 | 56 | 1025.9 |
| 20260903123540 | 14 | 210 | 9.7 | 14.5 | 0.00 | 0.00 | 0.00 | 50 | 1025.8 |
| 20260903122520 | 14 | 180 | 8.0 | 11.3 | 0.00 | 0.00 | 0.00 | 52 | 1025.8 |
| 20260903121520 | 15 | 226 | 9.7 | 14.5 | 0.00 | 0.00 | 0.00 | 47 | 1025.7 |
| 20260903120520 | 13 | 181 | 8.0 | 12.9 | 0.00 | 0.00 | 0.00 | 57 | 1025.6 |
| 20260903115520 | 13 | 197 | 9.7 | 14.5 | 0.00 | 0.00 | 0.00 | 55 | 1025.6 |
| 20260903114520 | 13 | 257 | 4.8 | 11.3 | 0.00 | 0.00 | 0.00 | 53 | 1025.4 |
| 20260903113530 | 14 | 209 | 4.8 | 8.0 | 0.00 | 0.00 | 0.00 | 52 | 1025.6 |
| 20260903112541 | 14 | 181 | 8.0 | 14.5 | 0.00 | 0.00 | 0.00 | 51 | 1025.4 |
| 20260903111541 | 13 | 174 | 9.7 | 11.3 | 0.00 | 0.00 | 0.00 | 52 | 1025.4 |
| 20260903110521 | 14 | 116 | 4.8 | 9.7 | 0.00 | 0.00 | 0.00 | 50 | 1025.3 |
| 20260903105521 | 13 | 143 | 8.0 | 12.9 | 0.00 | 0.00 | 0.00 | 50 | 1025.4 |
| 20260903104521 | 13 | 89 | 6.4 | 9.7 | 0.00 | 0.00 | 0.00 | 54 | 1025.5 |
| 20260903103530 | 13 | 126 | 4.8 | 8.0 | 0.00 | 0.00 | 0.00 | 51 | 1025.5 |
| 20260903102522 | 13 | 128 | 6.4 | 11.3 | 0.00 | 0.00 | 0.00 | 52 | 1025.4 |
| 20260903101536 | 13 | 143 | 8.0 | 11.3 | 0.00 | 0.00 | 0.00 | 50 | 1025.4 |
| 20260903100516 | 13 | 94 | 4.8 | 8.0 | 0.00 | 0.00 | 0.00 | 53 | 1025.5 |
| 20260903095522 | 13 | 129 | 4.8 | 11.3 | 0.00 | 0.00 | 0.00 | 56 | 1025.4 |
| 20260903094531 | 15 | 119 | 3.2 | 6.4 | 0.00 | 0.00 | 0.00 | 50 | 1025.3 |
| 20260903093551 | 15 | 119 | 3.2 | 4.8 | 0.00 | 0.00 | 0.00 | 46 | 1025.5 |
| 20260903092532 | 15 | 128 | 3.2 | 6.4 | 0.00 | 0.00 | 0.00 | 45 | 1025.5 |
| 20260903091517 | 15 | 114 | 3.2 | 6.4 | 0.00 | 0.00 | 0.00 | 49 | 1025.5 |
| 20260903090537 | 16 | 146 | 6.4 | 11.3 | 0.00 | 0.00 | 0.00 | 46 | 1025.5 |
| 20260903085517 | 17 | 154 | 3.2 | 9.7 | 0.00 | 0.00 | 0.00 | 40 | 1025.6 |
| 20260903084517 | 16 | 198 | 3.2 | 6.4 | 0.00 | 0.00 | 0.00 | 41 | 1025.6 |
| 20260903083517 | 16 | 351 | 4.8 | 8.0 | 0.00 | 0.00 | 0.00 | 41 | 1025.5 |
| 20260903082538 | 16 | 123 | 4.8 | 11.3 | 0.00 | 0.00 | 0.00 | 41 | 1025.5 |
| 20260903081518 | 16 | 111 | 4.8 | 9.7 | 0.00 | 0.00 | 0.00 | 42 | 1025.5 |
| 20260903080518 | 16 | 239 | 6.4 | 19.3 | 0.00 | 0.00 | 0.00 | 46 | 1025.6 |
| 20260903075518 | 15 | 102 | 4.8 | 11.3 | 0.00 | 0.00 | 0.00 | 46 | 1025.6 |
| 20260903074518 | 14 | 152 | 6.4 | 9.7 | 0.00 | 0.00 | 0.00 | 50 | 1025.7 |
| 20260903073518 | 14 | 104 | 3.2 | 4.8 | 0.00 | 0.00 | 0.00 | 51 | 1025.6 |
| 20260903072539 | 15 | 114 | 6.4 | 11.3 | 0.00 | 0.00 | 0.00 | 49 | 1025.5 |
| 20260903071519 | 16 | 153 | 4.8 | 8.0 | 0.00 | 0.00 | 0.00 | 45 | 1025.6 |
| 20260903070519 | 16 | 152 | 11.3 | 17.7 | 0.00 | 0.00 | 0.00 | 43 | 1025.5 |
| 20260903065519 | 15 | 208 | 6.4 | 11.3 | 0.00 | 0.00 | 0.00 | 47 | 1025.7 |
| 20260903064519 | 16 | 129 | 4.8 | 12.9 | 0.00 | 0.00 | 0.00 | 44 | 1025.6 |
| 20260903063517 | 16 | 183 | 8.0 | 17.7 | 0.00 | 0.00 | 0.00 | 43 | 1025.6 |
| 20260903062520 | 16 | 141 | 8.0 | 12.9 | 0.00 | 0.00 | 0.00 | 44 | 1025.6 |
| 20260903061517 | 18 | 268 | 16.1 | 29.0 | 0.00 | 0.00 | 0.00 | 36 | 1025.3 |
| 20260903060520 | 15 | 184 | 4.8 | 8.0 | 0.00 | 0.00 | 0.00 | 43 | 1025.6 |
| 20260903055520 | 15 | 168 | 8.0 | 12.9 | 0.00 | 0.00 | 0.00 | 47 | 1025.6 |
| 20260903054520 | 15 | 160 | 8.0 | 9.7 | 0.00 | 0.00 | 0.00 | 45 | 1025.7 |
| 20260903053521 | 15 | 168 | 8.0 | 11.3 | 0.00 | 0.00 | 0.00 | 44 | 1025.8 |
| 20260903052521 | 15 | 163 | 6.4 | 9.7 | 0.00 | 0.00 | 0.00 | 45 | 1025.8 |
| 20260903051521 | 15 | 142 | 6.4 | 12.9 | 0.00 | 0.00 | 0.00 | 42 | 1026.0 |
| 20260903050521 | 16 | 171 | 9.7 | 16.1 | 0.00 | 0.00 | 0.00 | 40 | 1026.0 |
| 20260903045601 | 16 | 145 | 3.2 | 6.4 | 0.00 | 0.00 | 0.00 | 39 | 1026.1 |
| 20260903044521 | 15 | 155 | 9.7 | 12.9 | 0.00 | 0.00 | 0.00 | 40 | 1026.1 |
| 20260903043522 | 15 | 189 | 4.8 | 9.7 | 0.00 | 0.00 | 0.00 | 41 | 1026.1 |
| 20260903042522 | 16 | 183 | 6.4 | 9.7 | 0.00 | 0.00 | 0.00 | 36 | 1026.1 |
| 20260903041522 | 16 | 141 | 3.2 | 6.4 | 0.00 | 0.00 | 0.00 | 36 | 1026.2 |
| 20260903040522 | 17 | 148 | 8.0 | 14.5 | 0.00 | 0.00 | 0.00 | 36 | 1026.1 |
| 20260903035516 | 17 | 98 | 4.8 | 8.0 | 0.00 | 0.00 | 0.00 | 33 | 1026.1 |
| 20260903034516 | 16 | 44 | 6.4 | 11.3 | 0.00 | 0.00 | 0.00 | 35 | 1026.1 |
| 20260903033517 | 17 | 229 | 6.4 | 11.3 | 0.00 | 0.00 | 0.00 | 32 | 1026.0 |
| 20260903032523 | 18 | 227 | 8.0 | 12.9 | 0.00 | 0.00 | 0.00 | 31 | 1025.8 |
| 20260903031517 | 18 | 245 | 9.7 | 14.5 | 0.00 | 0.00 | 0.00 | 31 | 1025.7 |
| 20260903030517 | 18 | 238 | 8.0 | 12.9 | 0.00 | 0.00 | 0.00 | 31 | 1025.6 |
| 20260903025517 | 18 | 252 | 9.7 | 16.1 | 0.00 | 0.00 | 0.00 | 30 | 1025.5 |
| 20260903024517 | 18 | 254 | 9.7 | 16.1 | 0.00 | 0.00 | 0.00 | 29 | 1025.4 |